DELTA 1 DEB, 19306

Orbit data source: Space-Track

DELTA 1 DEB, 19306 is space debris in SSO originally from a launch on Thu, 29 Jul 1976 UTC launched from the Air Force Western Test Range (AFWTR). Debris objects in space refer to the collection of defunct objects orbiting the Earth. Examples of debris include non-operational satellites, rocket bodies, and fragments generated from explosions, collisions, or faulty payload assembly.

Loading next visibility...
Identifier
19306, 1976-077FJ
Orbit
SSO
Country
Flag of USUS
Related business
Manufacturer
Unknown
Mission
Spacecraft
Bus & Motor
Unknown
Mass
Unknown
Launch date (UTC)
1976-07-29 (49 years ago)
Launch vehicle
Unknown
Launch site
Air Force Western Test Range (AFWTR)
Object type
Payload
Rocket body
Debris
Shape & HBR
Unknown shape, 0.1 m
Radar Cross Section
Small (<0.1 m²)

Expand to show TLE details & history
Last TLE update: 6 days ago

TLE from 6 days ago
0 DELTA 1 DEB
1 19306U 76077FJ  25284.25587638 -.00000016  00000-0  25285-3 0  9994
2 19306 102.2114  35.3322 0144718 129.0607 264.4071 12.15444017645008
Epoch: 2025-10-11T06:08Z
TLE epoch observation values (Epoch: 2025-10-11T06:08:27.719Z)
Latitude
31.07184°
Longitude
-84.32998°
Altitude
1,628.975 km
Speed
7.054 km/s
True Right ascension
01h 51m 30s
True Declination
30° 56' 12"
Sunlit
Object was in full shadow at epoch
Visualization orbit readout
Latitude
Unknown
Longitude
Unknown
Altitude
Unknown
Speed
Unknown
Apparent Right ascension
Unknown
Apparent Declination
Unknown
Sunlit
N/A
Visualization observer readout
Local Sidereal Time
14:52:11
Azimuth
Unknown
Elevation
Unknown
Doppler factor
Unknown
Orbital elements
Apogee altitude
1,725.67 km
Perigee altitude
1,494.462 km
Semi-major axis
7,988.203 km
Eccentricity
0.01447
Inclination
102.2114°
RAAN
35.3322°
Arg. of periapsis
129.0607°
True anomaly
262.75978°
Mean anomaly
264.4071°
Eccentric anomaly
263.58312°
Mean motion
3.03997 °/min
Orbital period
118.42 mins
BSTAR
0.00025285
Loading maneuver chart data...
Computing Atmospheric mass density...
Loading historical data...
Loading historical data...
Loading historical data...
Loading historical data...
Loading historical data...
Loading historical data...
Loading historical data...

Documentation

Showing up to 5 results
|